| time (UTC) | temp F | wind direction | speed MPH | gust MPH | rain 1hr in | rain 24hr in | rain mn in | humidity % | barometer mb |
| 20260904204541 | 79 | 118 | 0.0 | 0.0 | 0.00 | 0.00 | 0.00 | 51 | 1005.1 |
| 20260904203030 | 78 | 175 | 0.0 | 0.0 | 0.00 | 0.00 | 0.00 | 55 | 1005.4 |
| 20260904201516 | 79 | 182 | 0.0 | 0.0 | 0.00 | 0.00 | 0.00 | 54 | 1005.5 |
| 20260904200048 | 80 | 195 | 0.0 | 0.0 | 0.00 | 0.00 | 0.00 | 51 | 1005.5 |
| 20260904194547 | 80 | 86 | 1.0 | 0.0 | 0.00 | 0.00 | 0.00 | 49 | 1005.6 |
| 20260904193034 | 79 | 68 | 2.0 | 0.0 | 0.00 | 0.00 | 0.00 | 51 | 1005.8 |
| 20260904191539 | 78 | 100 | 1.0 | 0.0 | 0.00 | 0.00 | 0.00 | 52 | 1006.0 |
| 20260904190037 | 78 | 110 | 2.0 | 0.0 | 0.00 | 0.00 | 0.00 | 54 | 1006.2 |
| 20260904184527 | 78 | 101 | 1.0 | 0.0 | 0.00 | 0.00 | 0.00 | 55 | 1006.4 |
| 20260904183056 | 77 | 90 | 4.0 | 0.0 | 0.00 | 0.00 | 0.00 | 58 | 1006.4 |
| 20260904181533 | 76 | 71 | 3.0 | 0.0 | 0.00 | 0.00 | 0.00 | 57 | 1006.3 |
| 20260904180023 | 76 | 74 | 3.0 | 0.0 | 0.00 | 0.00 | 0.00 | 59 | 1006.4 |
| 20260904174526 | 75 | 83 | 2.0 | 0.0 | 0.00 | 0.00 | 0.00 | 60 | 1006.4 |
| 20260904173030 | 74 | 86 | 0.0 | 0.0 | 0.00 | 0.00 | 0.00 | 63 | 1006.3 |
| 20260904171558 | 72 | 86 | 1.0 | 0.0 | 0.00 | 0.00 | 0.00 | 67 | 1006.3 |
| 20260904170045 | 69 | 98 | 1.0 | 0.0 | 0.00 | 0.00 | 0.00 | 76 | 1006.2 |
| 20260904164534 | 68 | 66 | 0.0 | 0.0 | 0.00 | 0.00 | 0.00 | 85 | 1006.0 |
| 20260904163012 | 67 | 65 | 1.0 | 0.0 | 0.00 | 0.00 | 0.00 | 92 | 1005.8 |
| 20260904161627 | 66 | 259 | 0.0 | 0.0 | 0.00 | 0.00 | 0.00 | 94 | 1005.8 |
| 20260904161501 | 66 | 259 | 0.0 | 0.0 | 0.00 | 0.00 | 0.00 | 94 | 1005.6 |
| 20260904160055 | 64 | 259 | 0.0 | 0.0 | 0.00 | 0.00 | 0.00 | 95 | 1005.6 |
| 20260904154545 | 64 | 259 | 0.0 | 0.0 | 0.00 | 0.00 | 0.00 | 95 | 1005.5 |
| 20260904153025 | 64 | 259 | 0.0 | 0.0 | 0.00 | 0.00 | 0.00 | 95 | 1005.6 |
| 20260904151557 | 63 | 259 | 0.0 | 0.0 | 0.00 | 0.00 | 0.00 | 95 | 1005.6 |
| 20260904150100 | 62 | 259 | 0.0 | 0.0 | 0.00 | 0.00 | 0.00 | 95 | 1005.5 |
| 20260904144542 | 62 | 259 | 0.0 | 0.0 | 0.00 | 0.00 | 0.00 | 95 | 1005.4 |
| 20260904143019 | 61 | 259 | 0.0 | 0.0 | 0.00 | 0.00 | 0.00 | 95 | 1005.0 |
| 20260904141529 | 61 | 259 | 0.0 | 0.0 | 0.00 | 0.00 | 0.00 | 94 | 1004.9 |
| 20260904140012 | 60 | 259 | 0.0 | 0.0 | 0.00 | 0.00 | 0.00 | 94 | 1004.9 |
| 20260904134547 | 60 | 259 | 0.0 | 0.0 | 0.00 | 0.00 | 0.00 | 94 | 1004.9 |
| 20260904133013 | 60 | 259 | 0.0 | 0.0 | 0.00 | 0.00 | 0.00 | 94 | 1004.8 |
| 20260904131551 | 60 | 259 | 0.0 | 0.0 | 0.00 | 0.00 | 0.00 | 94 | 1004.8 |
| 20260904130018 | 60 | 259 | 0.0 | 0.0 | 0.00 | 0.00 | 0.00 | 93 | 1004.6 |
| 20260904124602 | 60 | 259 | 0.0 | 0.0 | 0.00 | 0.00 | 0.00 | 93 | 1004.6 |
| 20260904123025 | 60 | 259 | 0.0 | 0.0 | 0.00 | 0.00 | 0.00 | 93 | 1004.5 |
| 20260904121504 | 60 | 259 | 0.0 | 0.0 | 0.00 | 0.00 | 0.00 | 93 | 1004.4 |
| 20260904120031 | 61 | 259 | 0.0 | 0.0 | 0.00 | 0.00 | 0.00 | 93 | 1004.4 |
| 20260904114525 | 61 | 259 | 0.0 | 0.0 | 0.00 | 0.00 | 0.00 | 93 | 1004.4 |
| 20260904113057 | 60 | 259 | 0.0 | 0.0 | 0.00 | 0.00 | 0.00 | 93 | 1004.4 |
| 20260904111536 | 60 | 259 | 0.0 | 0.0 | 0.00 | 0.00 | 0.00 | 92 | 1004.4 |
| 20260904110026 | 60 | 259 | 0.0 | 0.0 | 0.00 | 0.00 | 0.00 | 92 | 1004.4 |
| 20260904104559 | 60 | 259 | 0.0 | 0.0 | 0.00 | 0.00 | 0.00 | 92 | 1004.4 |
| 20260904103036 | 60 | 259 | 0.0 | 0.0 | 0.00 | 0.00 | 0.00 | 92 | 1004.4 |
| 20260904101512 | 60 | 259 | 0.0 | 0.0 | 0.00 | 0.00 | 0.00 | 92 | 1004.4 |
| 20260904100037 | 60 | 259 | 0.0 | 0.0 | 0.00 | 0.00 | 0.00 | 91 | 1004.4 |
| 20260904094600 | 60 | 259 | 0.0 | 0.0 | 0.00 | 0.00 | 0.00 | 91 | 1004.4 |
| 20260904094523 | 60 | 259 | 0.0 | 0.0 | 0.00 | 0.00 | 0.00 | 91 | 1004.4 |
| 20260904093054 | 61 | 259 | 0.0 | 0.0 | 0.00 | 0.00 | 0.00 | 91 | 1004.4 |
| 20260904091555 | 60 | 259 | 0.0 | 0.0 | 0.00 | 0.00 | 0.00 | 90 | 1004.4 |
| 20260904090054 | 61 | 259 | 0.0 | 0.0 | 0.00 | 0.00 | 0.00 | 90 | 1004.4 |
| 20260904084538 | 61 | 259 | 0.0 | 0.0 | 0.00 | 0.00 | 0.00 | 90 | 1004.5 |
| 20260904083034 | 61 | 259 | 0.0 | 0.0 | 0.00 | 0.00 | 0.00 | 89 | 1004.6 |
| 20260904081518 | 61 | 259 | 0.0 | 0.0 | 0.00 | 0.00 | 0.00 | 89 | 1004.8 |
| 20260904080006 | 61 | 259 | 0.0 | 0.0 | 0.00 | 0.00 | 0.00 | 88 | 1004.7 |
| 20260904074600 | 60 | 259 | 0.0 | 0.0 | 0.00 | 0.00 | 0.00 | 87 | 1004.7 |
| 20260904074501 | 60 | 259 | 0.0 | 0.0 | 0.00 | 0.00 | 0.00 | 87 | 1004.7 |
| 20260904073102 | 60 | 259 | 0.0 | 0.0 | 0.00 | 0.00 | 0.00 | 86 | 1004.7 |
| 20260904071556 | 60 | 259 | 0.0 | 0.0 | 0.00 | 0.00 | 0.00 | 85 | 1004.7 |
| 20260904070051 | 61 | 259 | 0.0 | 0.0 | 0.00 | 0.00 | 0.00 | 86 | 1004.6 |
| 20260904064540 | 61 | 259 | 0.0 | 0.0 | 0.00 | 0.00 | 0.00 | 87 | 1004.7 |
| 20260904063106 | 62 | 259 | 0.0 | 0.0 | 0.00 | 0.00 | 0.00 | 88 | 1004.6 |
| 20260904061528 | 62 | 259 | 0.0 | 0.0 | 0.00 | 0.00 | 0.00 | 88 | 1004.3 |
| 20260904060110 | 62 | 259 | 0.0 | 0.0 | 0.00 | 0.00 | 0.00 | 88 | 1004.3 |
| 20260904054549 | 63 | 259 | 0.0 | 0.0 | 0.00 | 0.00 | 0.00 | 87 | 1004.3 |
| 20260904053013 | 63 | 259 | 0.0 | 0.0 | 0.00 | 0.00 | 0.00 | 86 | 1004.4 |
| 20260904051546 | 63 | 259 | 0.0 | 0.0 | 0.00 | 0.00 | 0.00 | 85 | 1004.4 |
| 20260904050023 | 64 | 259 | 0.0 | 0.0 | 0.00 | 0.00 | 0.00 | 85 | 1004.5 |
| 20260904044557 | 64 | 259 | 0.0 | 0.0 | 0.00 | 0.00 | 0.00 | 84 | 1004.5 |
| 20260904043038 | 65 | 259 | 0.0 | 0.0 | 0.00 | 0.00 | 0.00 | 84 | 1004.3 |
| 20260904041553 | 65 | 267 | 0.0 | 0.0 | 0.00 | 0.00 | 0.00 | 83 | 1004.3 |
| 20260904040035 | 65 | 267 | 0.0 | 0.0 | 0.00 | 0.00 | 0.00 | 83 | 1004.2 |
| 20260904034518 | 65 | 267 | 0.0 | 0.0 | 0.00 | 0.00 | 0.00 | 82 | 1003.9 |
| 20260904033048 | 65 | 267 | 1.0 | 0.0 | 0.00 | 0.00 | 0.00 | 82 | 1003.9 |
| 20260904031538 | 66 | 263 | 0.0 | 0.0 | 0.00 | 0.00 | 0.00 | 82 | 1003.8 |
| 20260904030016 | 66 | 261 | 0.0 | 0.0 | 0.00 | 0.00 | 0.00 | 83 | 1003.7 |
| 20260904024606 | 66 | 246 | 0.0 | 0.0 | 0.00 | 0.00 | 0.00 | 82 | 1003.7 |
| 20260904023041 | 66 | 245 | 0.0 | 0.0 | 0.00 | 0.00 | 0.00 | 81 | 1003.8 |
| 20260904021601 | 67 | 296 | 0.0 | 0.0 | 0.00 | 0.00 | 0.00 | 79 | 1003.8 |
| 20260904021506 | 67 | 296 | 0.0 | 0.0 | 0.00 | 0.00 | 0.00 | 78 | 1003.8 |
| 20260904020043 | 67 | 279 | 0.0 | 0.0 | 0.00 | 0.00 | 0.00 | 73 | 1003.8 |
| 20260904014512 | 68 | 279 | 0.0 | 0.0 | 0.00 | 0.00 | 0.00 | 72 | 1003.8 |
| 20260904013105 | 69 | 231 | 0.0 | 0.0 | 0.00 | 0.00 | 0.00 | 70 | 1003.8 |
| 20260904011513 | 69 | 268 | 0.0 | 0.0 | 0.00 | 0.00 | 0.00 | 67 | 1003.7 |
| 20260904010058 | 70 | 268 | 0.0 | 0.0 | 0.00 | 0.00 | 0.00 | 66 | 1003.7 |
| 20260904004550 | 72 | 229 | 0.0 | 0.0 | 0.00 | 0.00 | 0.00 | 61 | 1003.8 |
| 20260904003040 | 73 | 229 | 0.0 | 0.0 | 0.00 | 0.00 | 0.00 | 61 | 1003.8 |
| 20260904001608 | 73 | 236 | 1.0 | 0.0 | 0.00 | 0.00 | 0.00 | 63 | 1003.8 |
| 20260904000044 | 73 | 244 | 1.0 | 0.0 | 0.00 | 0.00 | 0.00 | 64 | 1003.9 |
| 20260903234504 | 74 | 265 | 1.0 | 0.0 | 0.00 | 0.00 | 0.00 | 63 | 1004.2 |
| 20260903233100 | 74 | 245 | 1.0 | 0.0 | 0.00 | 0.00 | 0.00 | 63 | 1004.2 |
| 20260903233001 | 74 | 243 | 1.0 | 0.0 | 0.00 | 0.00 | 0.00 | 63 | 1004.3 |
| 20260903231601 | 73 | 254 | 1.0 | 0.0 | 0.00 | 0.00 | 0.00 | 64 | 1004.3 |
| 20260903230034 | 74 | 266 | 0.0 | 0.0 | 0.00 | 0.00 | 0.00 | 62 | 1004.3 |
| 20260903224530 | 74 | 239 | 1.0 | 0.0 | 0.00 | 0.00 | 0.00 | 61 | 1004.4 |
| 20260903223016 | 75 | 222 | 0.0 | 0.0 | 0.00 | 0.00 | 0.00 | 60 | 1004.8 |
| 20260903221550 | 75 | 263 | 0.0 | 0.0 | 0.00 | 0.00 | 0.00 | 62 | 1004.8 |
| 20260903220037 | 76 | 234 | 0.0 | 0.0 | 0.00 | 0.00 | 0.00 | 61 | 1004.8 |
| 20260903214530 | 75 | 173 | 1.0 | 0.0 | 0.00 | 0.00 | 0.00 | 61 | 1004.9 |
| 20260903213102 | 76 | 229 | 0.0 | 0.0 | 0.00 | 0.00 | 0.00 | 59 | 1004.9 |
| 20260903211541 | 75 | 182 | 0.0 | 0.0 | 0.00 | 0.00 | 0.00 | 61 | 1005.0 |